CAPE
279 443 443 144 298 284 33 0 384 24 66 60 49 665 623 311 219 825 1260 1584 1314 1201 645 719 1435 1291 1287 1316 1430 1458 1305 1349 1202 806 862 1179 938 1018 704 576 469 665 911
137 244 395 407 273 203 118 11 171 14 36 68 406 421 282 133 306 704 942 1543 1563 1265 1314 919 583 618 933 986 985 1029 1139 1263 1241 1228 1284 1227 1117 1156 937 968 810 955 1027
83 273 249 360 237 260 55 294 260 78 60 70 102 87 70 71 218 527 662 868 1442 1421 1005 1319 1221 851 714 658 609 810 994 1126 1043 1108 1306 1197 1274 1246 1263 1358 1314 1106 1037
202 305 269 262 228 244 358 440 227 224 87 62 60 54 69 51 56 153 473 602 812 937 1341 1082 1184 1425 1348 1329 1193 725 518 377 422 555 952 1022 1226 1138 1224 1180 1148 942 874
394 322 214 144 378 443 586 619 219 390 168 113 60 21 51 57 46 58 283 378 351 396 1035 1138 1232 1154 1230 1001 1079 1109 1138 1318 1383 1413 1377 1351 1303 1110 1068 946 893 833 866
693 407 124 196 274 257 387 352 38 0 3 31 18 2 6 16 48 35 46 68 62 194 522 1004 752 809 1028 825 1000 872 1153 1270 1317 1165 1273 1311 1152 828 895 878 645 625 625
968 533 351 232 171 127 446 152 25 0 0 0 0 0 0 0 23 23 24 21 57 101 299 544 411 427 469 838 996 870 674 659 759 946 1057 1224 927 789 489 536 466 385 407
896 693 309 456 66 210 484 198 27 8 0 0 0 0 0 0 0 0 7 21 26 27 136 272 260 285 271 364 374 437 598 621 680 844 697 613 662 597 421 253 105 0 0
658 929 703 562 533 174 420 233 129 0 0 0 0 0 0 0 0 0 0 3 30 6 10 45 138 125 122 249 205 500 680 513 563 446 346 329 315 214 50 0 0 0 0
574 917 877 580 495 518 505 438 244 22 0 0 0 0 0 0 0 0 0 0 0 0 3 0 68 115 116 155 65 170 252 282 403 201 38 1 0 0 0 0 0 0 0
408 933 913 655 580 713 447 630 535 272 0 0 0 0 0 0 0 0 0 0 0 0 0 0 60 150 146 126 89 0 13 102 45 20 0 0 0 0 0 0 0 0 0
385 729 1009 740 672 644 637 627 602 410 274 5 0 0 0 8 0 0 0 0 0 0 0 0 2 127 253 178 79 0 0 8 0 0 0 0 0 0 0 0 0 0 0
309 550 798 727 591 572 723 395 382 691 474 523 75 0 0 0 0 0 0 0 0 0 0 0 0 17 171 236 72 42 0 0 0 0 0 0 0 0 5 2 0 0 0
314 519 699 822 715 668 722 655 333 339 663 518 710 102 0 0 0 0 0 0 8 0 0 122 0 0 40 252 144 12 13 0 0 0 0 0 0 0 0 0 2 2 7
223 441 628 927 906 827 844 820 727 719 758 765 544 577 176 28 0 0 0 0 28 27 18 37 56 0 0 0 164 199 92 0 0 0 0 0 0 0 0 0 0 0 0
255 384 507 795 989 1034 995 920 864 672 735 980 910 637 558 378 70 0 2 0 0 0 12 0 21 0 0 0 0 142 41 0 0 0 0 0 0 0 0 0 0 0 0
155 332 398 576 899 1069 1142 1067 1121 1018 846 962 1025 1095 1070 517 568 235 4 0 0 0 0 5 0 0 9 0 13 87 1 16 0 0 0 0 0 0 0 0 0 0 0
145 417 513 565 713 947 1047 1151 1218 1353 1181 1142 1121 1139 1321 1080 820 592 214 92 1 0 0 36 0 0 0 2 3 2 12 0 0 0 0 0 0 0 0 0 0 0 0
157 265 500 706 776 978 1098 1133 1203 1325 1475 1471 1402 1305 1378 1317 1446 1175 789 460 67 1 0 0 6 0 0 0 0 0 0 2 0 0 0 0 0 0 0 0 0 0 0
484 413 498 613 874 1025 1262 1343 1329 1344 1386 1578 1670 1569 1530 1531 1554 1720 1199 1024 827 430 43 12 8 0 0 0 0 19 9 0 0 0 0 0 0 0 0 0 0 0 0
392 453 578 656 845 1028 1141 1461 1595 1560 1520 1483 1539 1685 1771 1655 1401 1496 1705 1632 1255 973 1007 428 452 79 13 10 8 91 0 47 70 1 0 0 0 0 0 0 0 0 0
853 657 605 739 843 966 891 803 1295 1726 1757 1690 1627 1566 1625 1262 1130 854 659 964 1454 1350 1330 1200 1017 1075 1042 530 114 41 10 19 123 45 0 1 0 0 2 7 4 0 0
1252 1125 856 898 979 1177 1017 444 421 1574 1740 1827 1847 1823 1775 1689 1319 1791 1039 184 161 141 686 1820 1610 1354 1268 1327 908 336 63 67 204 204 0 0 34 0 5 0 0 0 0
951 1283 1397 1186 983 1025 857 226 104 1201 1673 1792 1844 1924 1964 2061 1983 1820 1979 2064 1910 1482 664 399 1090 1698 1986 1929 1469 946 607 337 70 95 8 0 38 0 0 0 0 0 0
1195 1066 1137 1326 1471 1420 693 197 0 1085 1694 1846 1969 2061 2056 2069 1870 1341 1848 2094 2190 2242 1680 824 440 555 303 140 288 1096 601 0 3 67 151 0 9 0 0 0 0 0 0
1856 1754 1574 1484 1205 1361 1139 238 0 1148 1396 1615 1992 2175 1745 1902 2016 1579 1190 2137 2314 2424 2362 2254 1652 242 49 113 4 0 308 582 444 176 422 0 1 1 2 0 0 0 0
CIN
-172 -145 -153 -217 -175 -190 -189 0 -154 -232 -221 -210 -215 -111 -89 -114 -108 -42 -12 -2 -3 -2 -8 -6 -4 0 0 0 0 0 0 0 -1 -6 -4 -3 -2 -1 -3 -4 -5 -1 0
-238 -188 -162 -165 -176 -184 -201 -161 -173 -285 -253 -204 -152 -116 -117 -121 -99 -60 -25 -7 -1 -2 -1 -2 -12 -2 0 0 0 0 0 0 -1 0 -1 -1 -2 -1 -1 0 0 0 0
-255 -181 -176 -166 -186 -169 -216 -174 -181 -201 -187 -155 -148 -122 -139 -132 -109 -76 -49 -23 -7 -1 -4 -1 -1 -3 -3 -6 -5 0 0 0 -1 0 0 -1 -1 -1 -1 0 0 0 0
-204 -165 -175 -166 -195 -196 -190 -153 -187 -168 -161 -158 -161 -168 -155 -149 -135 -108 -70 -45 -27 -8 -2 -4 -2 -1 0 0 0 -3 -12 -24 -19 -14 -4 -1 -1 -1 0 0 0 0 -2
-161 -165 -196 -199 -161 -170 -151 -137 -170 -134 -139 -138 -142 -221 -170 -150 -148 -125 -89 -74 -70 -57 -15 -8 -4 -5 -3 -3 -1 0 0 0 0 0 0 0 0 -1 -1 -1 -1 -1 -3
-132 -155 -199 -183 -192 -195 -160 -165 -193 0 -69 -223 -139 -225 -158 -158 -167 -154 -132 -184 -197 -88 -48 -15 -19 -11 -6 -4 -2 -2 -1 0 0 -1 0 0 -1 -2 -1 -1 -4 -3 -5
-112 -140 -162 -187 -201 -186 -133 -175 -191 0 0 0 -2 -1 0 0 -171 -169 -160 -139 -205 -134 -76 -48 -46 -43 -30 -7 -2 -3 -2 -1 0 0 -1 -1 -2 -4 -16 -8 -11 -13 -8
-129 -134 -157 -149 -205 -174 -125 -156 -159 -131 0 0 0 0 0 0 0 0 -190 -134 -220 -143 -120 -73 -71 -67 -71 -47 -27 -13 -5 -6 -2 -1 -3 -4 -5 -8 -15 -26 -67 0 0
-156 -126 -128 -137 -151 -189 -131 -136 -170 0 0 0 0 0 0 0 0 0 0 -61 -234 -114 -115 -224 -140 -155 -156 -89 -90 -28 -5 -8 -3 -3 -9 -7 -11 -25 -111 0 0 0 0
-168 -131 -122 -138 -147 -154 -133 -122 -141 -122 0 0 0 0 0 0 0 0 0 0 0 0 -323 0 -221 -177 -199 -159 -221 -92 -55 -27 -14 -34 -113 -20 0 0 0 0 0 0 0
-188 -131 -129 -139 -132 -125 -147 -119 -122 -138 0 0 0 0 0 0 0 0 0 0 0 0 0 0 -279 -180 -202 -216 -240 0 -185 -136 -171 -211 0 0 0 0 0 0 0 0 0
-209 -162 -124 -134 -128 -115 -120 -122 -119 -138 -169 -30 0 0 0 -111 0 0 0 0 0 0 0 0 -64 -275 -212 -232 -307 0 0 -217 0 0 0 0 0 0 0 0 0 0 0
-228 -195 -148 -135 -137 -140 -118 -147 -164 -124 -166 -134 -145 0 0 0 0 0 0 0 0 0 0 0 0 -297 -324 -316 -388 -418 0 0 0 0 0 0 0 0 -100 -98 0 0 0
-239 -205 -170 -138 -139 -135 -122 -121 -181 -207 -160 -168 -133 -241 0 0 0 0 0 0 -203 0 0 -290 0 0 -549 -396 -453 -303 -450 0 0 0 0 0 0 0 0 0 -16 -11 -89
-249 -211 -183 -136 -136 -133 -121 -112 -119 -152 -158 -158 -197 -183 -271 -377 0 0 0 0 -243 -257 -352 -403 -457 0 0 0 -515 -468 -515 -1 0 0 0 0 0 0 0 0 0 0 0
-245 -226 -213 -163 -132 -124 -118 -113 -116 -166 -172 -151 -159 -209 -228 -261 -378 0 -109 0 0 0 -309 0 -165 0 0 0 0 -579 -647 0 0 0 0 0 0 0 0 0 0 0 0
-291 -255 -247 -209 -146 -122 -116 -108 -101 -116 -161 -167 -162 -159 -170 -264 -239 -342 -168 0 0 0 0 -65 0 0 -296 0 -461 -650 -203 -677 0 0 0 0 0 0 0 0 0 0 0
-331 -270 -243 -224 -191 -148 -139 -105 -99 -90 -127 -146 -166 -162 -152 -174 -240 -290 -394 -466 -35 0 0 -503 0 0 0 -44 -36 -385 -712 0 0 0 0 0 0 0 0 0 0 0 0
-357 -310 -256 -224 -208 -169 -147 -143 -132 -118 -111 -129 -140 -160 -164 -166 -145 -187 -268 -346 -529 -93 0 0 -75 0 0 0 0 0 0 -591 0 0 0 0 0 0 0 0 0 0 0
-302 -319 -293 -284 -230 -201 -164 -154 -149 -146 -149 -134 -133 -158 -171 -183 -188 -147 -223 -272 -325 -417 -642 -312 -315 0 0 -21 0 -327 -310 0 0 0 0 0 0 0 0 0 0 0 0
-380 -367 -314 -300 -265 -215 -199 -176 -164 -172 -178 -183 -179 -167 -165 -195 -240 -210 -154 -201 -244 -288 -256 -409 -421 -634 -518 -516 -654 -537 0 -590 -679 -79 0 0 0 0 0 0 0 0 0
-319 -354 -357 -331 -312 -273 -273 -311 -233 -187 -180 -178 -194 -215 -212 -267 -311 -378 -441 -339 -197 -220 -183 -212 -286 -259 -302 -451 -592 -613 -655 -598 -533 -713 0 -44 -7 0 -588 -461 -469 0 0
-288 -305 -354 -346 -347 -323 -351 -478 -491 -224 -201 -193 -195 -194 -202 -229 -299 -220 -379 -671 -683 -664 -402 -124 -196 -281 -287 -237 -330 -523 -615 -578 -518 -480 0 0 -549 0 -568 0 0 0 0
-423 -339 -307 -367 -419 -430 -459 -631 -674 -340 -239 -246 -238 -216 -198 -198 -214 -228 -189 -178 -227 -291 -478 -537 -336 -264 -187 -156 -197 -313 -375 -444 -632 -594 -61 0 -503 0 0 0 0 0 0
-425 -457 -419 -386 -380 -393 -544 -689 0 -400 -279 -277 -249 -231 -216 -208 -233 -321 -219 -179 -201 -182 -250 -474 -611 -577 -677 -758 -639 -208 -353 -1 -117 -569 -504 0 -245 0 0 0 0 0 0
-342 -320 -358 -409 -488 -451 -497 -764 0 -416 -355 -333 -275 -242 -307 -261 -221 -295 -390 -181 -183 -163 -141 -163 -296 -769 -54 -799 -59 0 -420 -246 -264 -364 -383 0 -33 -12 -3 0 0 0 0
Wind_Speed
1 1 1 0 0 1 2 2 3 3 4 2 4 6 6 5 5 3 2 4 5 6 7 6 6 6 6 5 5 5 5 5 4 3 2 2 1 2 3 4 5 6 8
2 2 2 0 1 1 2 2 2 3 2 3 5 5 5 4 4 4 2 1 4 5 7 8 6 5 5 4 4 3 2 2 1 1 1 1 1 3 3 4 5 6 7
3 3 2 2 1 1 3 2 2 2 3 3 4 4 3 4 4 4 2 1 1 3 4 6 8 8 7 6 5 3 3 3 3 3 4 4 3 5 5 6 6 7 8
4 2 2 2 1 2 2 2 2 2 1 2 2 3 3 2 3 3 2 1 0 1 3 5 6 6 6 6 7 6 7 6 6 5 6 5 6 5 4 5 6 6 7
4 3 1 1 2 1 2 2 2 1 1 1 3 2 2 2 2 3 3 3 2 2 1 3 6 6 6 7 6 7 7 6 7 7 7 7 5 4 3 4 5 6 7
4 3 2 3 3 1 1 2 3 3 2 2 5 4 3 1 1 1 2 1 2 2 2 2 1 2 6 7 5 6 7 8 8 8 8 6 6 6 4 4 3 5 6
5 4 3 3 3 2 2 2 2 3 3 2 3 3 3 3 2 1 1 1 2 2 2 1 1 2 2 4 3 4 5 5 5 5 6 4 4 3 1 5 5 5 7
5 5 5 4 5 3 3 2 2 2 2 0 3 2 3 2 1 1 2 2 3 1 1 3 3 3 2 2 2 4 2 2 2 2 3 4 4 5 5 6 5 5 6
6 5 5 3 4 3 3 2 3 3 2 1 2 4 2 2 1 1 1 2 3 2 2 3 4 4 3 3 3 3 2 0 1 1 2 4 4 4 4 5 5 5 5
5 5 5 4 3 2 4 3 3 2 3 2 1 1 2 3 2 1 1 2 2 4 4 3 4 4 4 3 4 4 4 2 3 2 2 3 4 3 3 4 5 4 4
5 6 5 5 4 3 3 4 3 3 2 3 2 2 1 2 2 2 2 2 2 3 4 5 5 4 5 4 4 4 5 4 4 4 3 3 3 4 4 4 4 4 3
4 5 6 5 4 3 4 4 4 4 4 2 2 2 2 2 2 2 1 2 2 2 3 4 6 6 5 5 7 7 7 7 6 7 7 6 6 7 7 6 5 5 4
3 5 6 6 4 5 5 4 4 4 4 3 4 3 2 2 2 2 1 1 2 2 2 4 5 6 6 6 7 10 9 8 8 7 7 8 9 9 8 8 8 7 7
6 5 7 7 7 6 5 5 3 4 4 4 5 4 2 3 3 3 2 3 1 2 1 5 2 6 6 7 9 11 9 11 11 11 10 10 10 10 10 10 9 8 7
5 6 8 9 8 7 7 6 5 6 5 5 5 4 3 2 3 3 3 2 3 1 3 2 3 4 6 6 9 9 9 10 13 12 13 13 12 12 11 11 11 11 10
6 6 7 8 8 8 8 7 6 5 5 5 5 5 5 3 3 3 3 2 2 3 3 3 3 3 3 6 8 10 11 11 13 14 15 15 14 13 13 13 12 11 11
9 8 8 8 8 8 9 8 7 7 8 7 6 6 7 5 5 4 4 4 4 4 5 3 3 2 3 6 6 8 9 9 8 15 16 16 16 16 15 14 13 13 11
10 10 9 9 8 9 9 10 10 9 10 9 9 8 9 5 7 6 5 7 6 5 4 8 3 3 6 4 5 6 8 9 9 13 16 18 17 17 16 16 15 14 12
11 10 10 10 10 9 9 10 11 11 10 11 10 10 10 9 9 6 7 7 6 5 6 5 7 3 4 3 4 5 6 8 9 14 13 16 16 17 18 17 17 15 14
12 12 12 11 11 10 10 10 10 10 11 11 11 12 12 11 12 10 9 10 9 8 6 7 8 7 5 3 4 6 7 6 8 9 13 14 14 18 21 19 19 17 16
14 13 12 12 11 11 9 11 11 11 12 12 11 12 12 14 15 13 8 10 9 8 7 7 9 6 7 6 8 5 7 8 7 8 9 9 9 9 11 16 16 20 17
14 12 13 13 13 11 14 16 14 12 12 12 12 12 13 13 15 16 18 18 13 10 10 9 10 12 13 9 8 9 9 8 10 8 8 13 9 11 10 11 17 18 19
13 14 14 13 14 14 16 18 19 13 11 13 13 12 11 10 13 13 14 17 17 16 17 14 15 14 16 12 11 10 11 12 13 9 6 11 7 12 11 11 18 23 21
13 13 14 13 13 12 15 17 18 16 14 15 15 14 14 14 12 13 13 14 14 13 14 13 18 20 19 15 14 13 15 14 12 10 7 13 10 12 10 12 21 26 26
12 13 13 14 15 13 15 18 14 13 15 17 14 14 14 14 12 15 13 14 16 13 12 20 22 21 19 17 15 9 9 8 12 13 8 11 13 14 12 13 15 27 28
12 10 12 13 15 15 15 18 16 11 13 12 13 14 14 15 13 15 14 15 16 15 14 12 10 12 18 19 16 14 14 14 13 10 11 10 14 6 8 10 11 9 12
Wind_Direction
175 209 197 171 29 23 93 29 9 18 25 48 139 147 149 145 147 141 147 162 155 155 153 157 138 142 149 153 132 125 136 136 142 134 131 92 24 15 10 4 358 348 349
197 192 219 214 343 86 79 84 16 50 29 67 85 123 143 135 120 138 143 213 185 180 179 171 172 170 172 168 160 160 143 100 135 70 108 348 302 301 317 334 338 336 336
212 228 235 156 238 123 110 96 44 26 34 56 97 97 106 128 138 144 154 147 261 197 194 209 185 186 194 195 192 197 206 217 255 306 306 290 298 308 307 318 329 338 330
190 216 187 164 187 121 108 97 67 56 353 29 114 107 121 137 132 137 147 133 217 260 219 213 213 210 212 221 214 216 222 227 239 244 252 289 277 308 299 312 314 317 335
193 183 201 182 144 28 25 52 99 82 254 83 96 92 113 107 139 144 161 180 195 245 240 264 220 221 224 229 229 225 235 239 245 252 268 277 270 264 284 290 307 327 324
184 157 167 176 154 124 66 94 66 71 136 102 91 62 38 40 138 159 187 204 206 228 236 237 324 254 257 254 254 248 243 242 248 255 257 258 269 285 292 310 357 10 19
179 171 162 166 138 160 156 145 119 91 58 84 98 40 33 39 128 175 222 212 226 213 200 206 225 238 263 302 272 275 277 267 263 264 266 253 273 266 66 92 80 67 63
180 173 171 191 154 145 144 138 101 98 94 58 113 79 25 346 40 54 206 211 241 238 206 231 235 255 266 268 271 276 281 323 352 81 96 91 89 110 113 112 103 94 88
185 184 178 183 159 135 154 162 139 125 132 60 99 133 132 224 314 346 262 222 212 242 239 236 238 242 242 260 278 280 227 261 292 111 108 108 114 121 126 120 121 105 96
193 193 179 171 197 166 165 168 157 129 130 154 80 79 71 140 164 319 303 278 264 237 238 238 241 244 241 245 262 257 279 237 254 246 186 168 156 163 159 147 140 136 133
192 192 183 170 183 188 176 169 159 162 151 164 169 158 98 59 76 112 276 313 301 248 244 245 249 249 243 236 247 246 251 226 241 250 238 199 193 182 186 196 192 193 198
187 191 176 177 183 199 189 180 174 189 190 189 180 180 167 158 191 154 198 251 264 295 254 242 239 238 241 240 243 243 242 227 221 234 227 220 211 211 215 224 233 242 255
190 195 176 176 189 198 200 175 180 196 200 195 184 215 201 186 156 153 142 168 263 282 290 243 230 228 233 228 234 228 231 231 219 222 236 238 239 234 233 238 246 259 271
188 175 191 192 199 192 193 189 197 210 202 225 231 199 200 217 199 177 176 157 274 291 294 251 238 221 223 223 227 219 230 220 218 213 221 231 237 243 244 244 251 256 265
181 189 191 198 197 197 193 186 206 219 206 214 228 229 214 204 215 218 200 185 166 271 277 273 262 223 228 224 228 223 227 219 220 220 219 223 231 234 238 239 242 247 252
179 185 196 200 198 195 197 197 209 214 212 223 221 220 223 227 214 205 216 208 205 194 250 220 244 265 234 231 227 224 229 227 222 221 222 223 228 232 234 238 239 233 238
191 192 195 202 200 198 199 199 212 205 213 230 222 224 236 204 225 221 219 218 213 190 240 273 255 256 260 243 236 225 232 230 235 225 227 222 224 228 230 234 237 239 227
192 195 193 203 201 203 201 201 211 213 215 224 229 218 236 229 231 219 215 226 230 197 219 266 235 245 226 229 246 237 231 236 235 234 226 229 222 224 228 232 234 234 223
196 198 199 204 203 204 200 204 208 212 217 223 226 224 231 214 231 230 229 232 234 223 212 234 269 242 263 237 253 247 242 240 238 240 230 232 232 225 226 228 231 229 220
195 199 205 204 204 202 203 205 207 212 220 226 227 226 230 224 230 223 218 222 227 231 222 237 256 265 261 239 238 252 258 233 250 246 240 239 226 224 225 226 229 232 224
202 200 202 207 206 207 208 206 209 214 218 225 229 232 232 231 228 225 227 238 226 235 242 246 253 259 262 255 247 258 249 264 246 232 245 240 236 229 228 226 233 225 223
203 200 206 207 207 213 212 204 206 216 219 222 230 232 235 232 234 230 227 235 227 223 237 247 257 256 259 250 251 242 248 257 274 200 226 250 229 237 229 223 213 212 208
194 204 211 211 214 217 209 207 207 222 223 225 227 230 233 234 229 239 235 237 241 233 232 243 255 251 263 251 251 246 238 245 254 256 215 260 220 238 228 229 211 210 205
200 202 212 213 218 220 208 210 207 220 231 233 231 230 231 236 224 222 236 247 245 236 230 235 245 258 257 256 242 244 246 253 260 258 220 253 243 242 228 226 213 211 206
201 207 210 212 217 225 207 210 198 221 231 239 237 233 233 238 231 212 229 243 257 256 229 230 234 245 253 253 253 269 253 247 264 261 234 247 246 246 231 231 225 211 213
207 206 215 215 215 221 208 209 199 218 231 239 240 239 225 234 223 218 224 239 252 255 254 259 247 250 253 262 244 235 253 250 247 277 247 233 255 227 248 229 243 235 226